Spirit of St Louis Airport St Louis US
ICAO: KSUS
IATA: SUS
Category: Large
Scheduled Services: No

Elevation: 463 ft
TransAlt. 18000 ft.

Airport Communications:
ST LOUIS APP/DEP:126.5
ADVSY SVC:124.75
ATIS:134.8
CLNC DEL:121.7
CTAF:124.75
GND:121.7
ST LOUIS RDO:122.2
TWR:122.6
UNICOM:122.95

KSUS Zoom In..

If you have problems with the map follow the link
https://www.worldairports.se/pages/airport.php?
ICAO=KSUS

Runways:

(A) RW 08L length 5000 ft width 75 ft
---- / hdg 76

(B) RW 08R length 7485 ft width 150 ft
ILS 110.55 / hdg 76

(C) RW 26L length 7485 ft width 150 ft
ILS 111.10 / hdg 256

(D) RW 26R length 5000 ft width 75 ft
---- / hdg 256

Location; KSUS
Day. 26 / Time. 23.54 Zulu
* Altimeter: 29.95
* Temperature: 02° c. 35.6°f.
* Wind from: 000° Speed 00 kn.
Dewpoint: -01° c.
Visibility: 6 Statute Miles.
Clouds: Clear (automated report).
Conditions: Haze.

KSUS 262354Z 00000KT 6SM HZ CLR 02/M01 A2995 RMK AO2 SLP151 T00221006 10072 20017 53006


Wind - Calm.

 
 
jpsmedia worldairports.se 2020   terms of use